This is the latest recevied weather packets stored in our database for station/object JL1LCW-13. If no packets are shown the sender has not sent any weather packets the latest 10 day(s).
| Time | Temp. | Humidity | Pressure | Rain* | Wind** | Luminosity | Snow |
|---|---|---|---|---|---|---|---|
| 1777449118 | 13.89° C | 99% | 1013 hPa | 0.25 mm | - | - | - |
| 1777448217 | 15° C | 99% | 1012 hPa | 0 mm | - | - | - |
| 1777445518 | 15° C | 99% | 1012 hPa | 0 mm | - | - | - |
| 1777444618 | 15° C | 99% | 1012 hPa | 0 mm | - | - | - |
| 1777441918 | 16.11° C | 99% | 1011 hPa | 0 mm | - | - | - |
| 1777441017 | 16.11° C | 99% | 1012 hPa | 0 mm | - | - | - |
| 1777438318 | 17.22° C | 99% | 1011 hPa | 0 mm | - | - | - |
| 1777437418 | 16.11° C | 99% | 1011 hPa | 0 mm | - | - | - |
| 1777434718 | 16.11° C | 99% | 1011 hPa | 0 mm | - | - | - |
| 1777433818 | 16.11° C | 99% | 1011 hPa | 0 mm | - | - | - |
| 1777430219 | 17.22° C | 99% | 1012 hPa | 0 mm | - | - | - |
| 1777427519 | 17.22° C | 99% | 1011 hPa | 0 mm | - | - | - |
| 1777423019 | 17.22° C | 99% | 1011 hPa | 0 mm | - | - | - |
| 1777420318 | 16.11° C | 99% | 1011 hPa | 0 mm | - | - | - |
| 1777408617 | 16.11° C | 99% | 1009 hPa | 0 mm | - | - | - |
| 1777397819 | 17.22° C | 99% | 1008 hPa | 0 mm | - | - | - |
| 1777383419 | 18.89° C | 99% | 1008 hPa | 0 mm | - | - | - |
| 1777379819 | 18.89° C | 99% | 1008 hPa | 0 mm | - | - | - |
| 1777372618 | 18.89° C | 99% | 1007 hPa | 0 mm | - | - | - |
| 1777369919 | 20° C | 91% | 1007 hPa | 0 mm | - | - | - |
| 1777369018 | 20° C | 88% | 1007 hPa | 0 mm | - | - | - |
| 1777365419 | 22.22° C | 82% | 1007 hPa | 0 mm | - | - | - |
| 1777362718 | 22.78° C | 81% | 1007 hPa | 0 mm | - | - | - |
| 1777361817 | 22.78° C | 81% | 1007 hPa | 0 mm | - | - | - |
| 1777358218 | 23.89° C | 77% | 1007 hPa | 0 mm | - | - | - |
* Rain latest hour (hover to see other rain measurements)
** Current wind speed in m/s (hover to see current wind gust speed)